Hourly Weather Roundup
Issued by NWS Central Illinois

Home | Current Version | Previous Version | Text Only | Print | Product List | Glossary On
Versions: 1 2 3 4 5 6 7 8 9 10 11 12 13 14 15 16 17 18 19 20 21 22 23 24 25 26 27 28 29 30 31 32 33 34 35 36 37 38 39 40 41 42 43 44 45 46 47 48 49 50
000
NZUS43 KILX 290910
HWRILX

AREA WEATHER ROUNDUP
NATIONAL WEATHER SERVICE, LINCOLN IL
400 AM CDT WED MAR 29 2017


CITY           SKY/WX    TMP DP  RH WIND       PRES   REMARKS
BLOOMINGTON    CLOUDY    42  41  96 E15       30.15F FOG     WCI  34
CHAMPAIGN      CLOUDY    47  41  80 NE10      30.14R
DECATUR        CLOUDY    44  40  85 E10       30.13F
EFFINGHAM      CLEAR     44  43  97 N3        30.12F
FLORA          CLOUDY    48  45  88 NE6       30.10F
GALESBURG      CLOUDY    40  39  95 E9        30.14S WCI  35
JACKSONVILLE   CLOUDY    43  40  89 NE9       30.09F
LACON          CLOUDY    43  41  94 E9        30.16R
LAWRENCEVILLE  CLEAR     46  44  93 NE7       30.11R
LITCHFIELD     CLOUDY    45  42  89 E9        30.08F
$$


CITY           SKY/WX    TMP DP  RH WIND       PRES   REMARKS
LINCOLN        CLOUDY    44  43  96 NE7       30.13F
MACOMB         CLOUDY    42  41  97 E12       30.14F FOG
MATTOON        CLEAR     39  39 100 NE6       30.11F FOG     WCI  35
MT CARMEL AP   CLEAR     47  44  88 NE6       30.10S
OLNEY-NOBLE AP PTCLDY    45  45 100 NE3       30.11S
PARIS          CLOUDY    47  44  91 NE5       30.14R
PEORIA         CLOUDY    43  41  93 E7        30.14F FOG
PONTIAC        CLOUDY    43  43  98 NE13      30.17F
RANTOUL        CLOUDY    46  45  95 NE6       30.16R FOG
SPRINGFIELD    CLOUDY    44  40  85 NE9       30.12F
TAYLORVILLE    CLOUDY    43  39  87 E7        30.11F
$$

...REGIONAL REPORTS...


CITY           SKY/WX    TMP DP  RH WIND       PRES   REMARKS
CHICAGO O`HARE FOG       35  34  96 NE9       30.22R VSB 3/4 WCI  28
KANKAKEE       CLOUDY    41  39  93 NE8       30.19S
MOLINE         CLOUDY    42  38  85 E13       30.15F
MOUNT STERLING CLOUDY    44  41  87 E14       30.09F
MOUNT VERNON   NOT AVBL
PITTSFIELD     CLOUDY    47  44  90 NE10      30.08F
QUINCY         CLOUDY    47  43  86 NE9       30.08F
ROCKFORD       FOG       37  35  92 E8        30.21F VSB 3/4 WCI  31
$$


CITY           SKY/WX    TMP DP  RH WIND       PRES   REMARKS
BURLINGTON     PTCLDY    42  40  92 E13       30.10F
CEDAR RAPIDS   CLOUDY    40  39  97 E13       30.13S WCI  32
DES MOINES     CLOUDY    46  42  86 NE9       30.10R
KIRKSVILLE     CLOUDY    48  45  89 E16       30.02F
OTTUMWA        CLOUDY    43  41  93 E12       30.11R
ST LOUIS       CLOUDY    52  45  77 E12       30.05F
$$


CITY           SKY/WX    TMP DP  RH WIND       PRES   REMARKS
TERRE HAUTE    CLOUDY    49  43  80 NE6       30.13R
EVANSVILLE     CLOUDY    53  48  83 NE9       30.09S
INDIANAPOLIS   CLOUDY    49  44  83 E12       30.12F
LAFAYETTE      CLOUDY    46  44  93 NE15      30.16R
MADISON        CLEAR     32  30  92 CALM      30.22F
MILWAUKEE      FOG       32  31  96 CALM      30.25R VSB 1/8
$$






USA.gov is the U.S. government's official web portal to all federal, state and local government web resources and services.